C/2020 T5 ( Lemmon )

Japanese version
Home page
Updated on October 29, 2020

---------------------------------------------------------------------

* Profile

Discovery Date October 5, 2020
Magnitude 20.5 mag
Discoverer Mount Lemmon Survey

* Orbital Elements

Epoch 2020 Sept. 28.0 TT = JDT 2459120.5                                        
T 2020 Oct.  9.61974 TT                                 Rudenko                 
q   1.8890306            (2000.0)            P               Q                  
z  +0.0010660      Peri.   90.29087     +0.33893303     +0.53024849             
 +/-0.0000076      Node   237.86186     -0.55492430     +0.77972168             
e   0.9979863      Incl.   66.60408     +0.75972588     +0.33297244             
From 103 observations 2020 Apr. 19-Oct. 24, mean residual 0".5.                 

* Magnitudes Graph

        m1 = 16.0 + 5 log d + 10.0 log r

---------------------------------------------------------------------

The orbital elements are published on M.P.E.C. 2020-U251.
The magnitudes graphs are made with Comet for Windows.

---------------------------------------------------------------------

Copyright(C) Seiichi Yoshida (comet@aerith.net). All rights reserved.